OK,76,43,863,76,2014-10-01T01:40:00,0,28072633,204140
OK,76,43,863,76,2014-10-01T01:45:00,0,28073080,204140
OK,76,43,863,76,2014-10-01T01:50:00,0,28073529,204140
OK,76,43,863,76,2014-10-01T01:55:00,0,28073846,204140
OK,76,43,863,76,2014-10-01T02:00:00,0,28074295,204140
OK,76,43,863,76,2014-10-01T02:05:00,0,28074737,204140
OK,76,43,863,76,2014-10-01T02:10:00,0,28075184,204140
OK,76,43,863,76,2014-10-01T02:20:00,0,28075633,204140
OK,76,43,863,76,2014-10-01T02:25:00,0,28076465,204140
OK,76,43,863,76,2014-10-01T02:30:00,0,28076914,204140
OK,76,43,863,76,2014-10-01T02:35:00,0,28077363,204140
OK,76,43,863,76,2014-10-01T02:40:00,0,28077767,204140
OK,76,43,863,76,2014-10-01T02:45:00,0,28078215,204140
OK,76,43,863,76,2014-10-01T02:50:00,0,28078660,204140
OK,76,43,863,76,2014-10-01T02:55:00,0,28079109,204140
OK,76,43,863,76,2014-10-01T03:00:00,0,28079551,204140
OK,76,43,863,76,2014-10-01T03:05:00,0,28080000,204140
OK,76,43,863,76,2014-10-01T03:10:00,0,28080336,204140
OK,76,43,863,76,2014-10-01T03:15:00,0,28080783,204140
OK,76,43,863,76,2014-10-01T03:20:00,0,28081232,204140
OK,76,43,863,76,2014-10-01T03:25:00,0,28081679,204140
OK,76,43,863,76,2014-10-01T03:30:00,0,28082128,204140
OK,76,43,863,76,2014-10-01T03:35:00,0,28082563,204140
OK,76,43,863,76,2014-10-01T03:40:00,0,28082993,204140
OK,76,43,863,76,2014-10-01T03:45:00,0,28083442,204140
OK,76,43,863,76,2014-10-01T03:55:00,0,28083891,204140
OK,76,43,863,76,2014-10-01T04:00:00,0,28084760,204140
OK,76,43,863,76,2014-10-01T04:05:00,0,28085206,204140
OK,79,41,863,79,2014-10-01T04:10:00,1,28085651,204140
OK,79,41,863,79,2014-10-01T04:15:00,1,28086100,204140
OK,79,41,863,79,2014-10-01T04:20:00,0,28086542,204140
OK,79,41,863,79,2014-10-01T04:25:00,0,28086991,204140
OK,79,41,863,79,2014-10-01T04:30:00,0,28087436,204140
OK,107,30,863,107,2014-10-01T04:35:00,1,28087885,204140
OK,107,30,863,107,2014-10-01T04:40:00,1,28088311,204140
OK,107,30,863,107,2014-10-01T04:45:00,0,28088758,204140
OK,107,30,863,107,2014-10-01T04:50:00,0,28089189,204140
OK,107,30,863,107,2014-10-01T04:55:00,0,28089637,204140
OK,107,30,863,107,2014-10-01T05:05:00,0,28090086,204140
OK,107,30,863,107,2014-10-01T05:10:00,0,28090879,204140
OK,107,30,863,107,2014-10-01T05:15:00,0,28091328,204140
OK,107,30,863,107,2014-10-01T05:20:00,2,28091746,204140
OK,106,30,863,106,2014-10-01T05:25:00,3,28092194,204140
OK,77,42,863,77,2014-10-01T05:30:00,3,28092639,204140
OK,100,32,863,100,2014-10-01T05:35:00,4,28093079,204140
OK,106,30,863,106,2014-10-01T05:40:00,1,28093510,204140
OK,121,27,863,121,2014-10-01T05:45:00,3,28093959,204140
OK,110,29,863,110,2014-10-01T05:50:00,2,28094373,204140
OK,66,49,863,66,2014-10-01T05:55:00,1,28094815,204140
OK,91,35,863,91,2014-10-01T06:00:00,2,28095262,204140
OK,117,27,863,117,2014-10-01T06:05:00,1,28095711,204140
OK,145,22,863,145,2014-10-01T06:10:00,5,28096125,204140
OK,104,31,863,104,2014-10-01T06:15:00,3,28096573,204140
OK,130,25,863,130,2014-10-01T06:20:00,4,28097008,204140
OK,80,40,863,80,2014-10-01T06:25:00,3,28097456,204140
OK,122,26,863,122,2014-10-01T06:30:00,4,28097905,204140
OK,147,22,863,147,2014-10-01T06:35:00,2,28098344,204140
OK,112,29,863,112,2014-10-01T06:40:00,1,28098786,204140
OK,112,29,863,112,2014-10-01T06:45:00,1,28099234,204140
OK,84,38,863,84,2014-10-01T06:50:00,1,28099579,204140
OK,84,38,863,84,2014-10-01T06:55:00,1,28100026,204140
OK,74,44,863,74,2014-10-01T07:00:00,1,28100335,204140
OK,74,44,863,74,2014-10-01T07:05:00,1,28100782,204140
OK,102,32,863,102,2014-10-01T07:10:00,4,28101154,204140
OK,95,34,863,95,2014-10-01T07:15:00,7,28101602,204140
OK,95,34,863,95,2014-10-01T07:20:00,3,28102039,204140
OK,93,35,863,93,2014-10-01T07:25:00,0,28102487,204140
OK,104,31,863,104,2014-10-01T07:30:00,3,28102918,204140
OK,82,39,863,82,2014-10-01T07:35:00,2,28103361,204140
OK,82,39,863,82,2014-10-01T07:40:00,0,28103806,204140
OK,60,54,863,60,2014-10-01T07:45:00,4,28104251,204140
OK,62,52,863,62,2014-10-01T07:50:00,5,28104693,204140
OK,89,36,863,89,2014-10-01T07:55:00,2,28105137,204140
OK,90,36,863,90,2014-10-01T08:00:00,1,28105578,204140
OK,81,40,863,81,2014-10-01T08:05:00,1,28106026,204140
OK,81,40,863,81,2014-10-01T08:10:00,3,28106463,204140
OK,108,30,863,108,2014-10-01T08:15:00,1,28106871,204140
OK,83,39,863,83,2014-10-01T08:20:00,4,28107301,204140
OK,67,48,863,67,2014-10-01T08:25:00,2,28107750,204140
OK,94,34,863,94,2014-10-01T08:30:00,7,28108189,204140
OK,120,27,863,120,2014-10-01T08:35:00,0,28108638,204140
OK,99,33,863,99,2014-10-01T08:40:00,2,28109067,204140
OK,99,33,863,99,2014-10-01T08:45:00,2,28109515,204140
OK,99,33,863,99,2014-10-01T08:50:00,0,28109859,204140
OK,99,33,863,99,2014-10-01T08:55:00,0,28110307,204140
OK,99,33,863,99,2014-10-01T09:00:00,0,28110730,204140
OK,74,44,863,74,2014-10-01T09:05:00,2,28111179,204140
OK,83,39,863,83,2014-10-01T09:10:00,3,28111608,204140
OK,81,40,863,81,2014-10-01T09:15:00,2,28112057,204140
OK,57,57,863,57,2014-10-01T09:20:00,1,28112399,204140
OK,74,44,863,74,2014-10-01T09:25:00,1,28112847,204140
OK,74,44,863,74,2014-10-01T09:30:00,1,28113272,204140
OK,74,44,863,74,2014-10-01T09:35:00,0,28113720,204140
OK,74,44,863,74,2014-10-01T09:40:00,0,28114152,204140
OK,74,44,863,74,2014-10-01T09:45:00,0,28114601,204140
OK,146,22,863,146,2014-10-01T09:50:00,3,28114956,204140
OK,146,22,863,146,2014-10-01T09:55:00,3,28115404,204140
OK,146,22,863,146,2014-10-01T10:00:00,0,28115817,204140
OK,89,36,863,89,2014-10-01T10:05:00,1,28116265,204140
OK,89,36,863,89,2014-10-01T10:10:00,0,28116674,204140
OK,89,36,863,89,2014-10-01T10:15:00,2,28117122,204140
OK,91,35,863,91,2014-10-01T10:20:00,3,28117547,204140
OK,78,41,863,78,2014-10-01T10:25:00,2,28117996,204140
OK,103,31,863,103,2014-10-01T10:30:00,4,28118441,204140
OK,103,31,863,103,2014-10-01T10:35:00,4,28118888,204140
OK,68,48,863,68,2014-10-01T10:40:00,2,28119332,204140
OK,82,39,863,82,2014-10-01T10:45:00,3,28119780,204140
OK,97,33,863,97,2014-10-01T10:50:00,3,28120228,204140
OK,117,27,863,117,2014-10-01T10:55:00,1,28120677,204140
OK,81,40,863,81,2014-10-01T11:00:00,2,28121061,204140
OK,83,39,863,83,2014-10-01T11:05:00,3,28121509,204140
OK,99,33,863,99,2014-10-01T11:10:00,1,28121948,204140
OK,99,33,863,99,2014-10-01T11:15:00,0,28122396,204140
OK,113,28,863,113,2014-10-01T11:20:00,1,28122838,204140
OK,113,28,863,113,2014-10-01T11:25:00,1,28123286,204140
OK,107,30,863,107,2014-10-01T11:30:00,1,28123719,204140
OK,107,30,863,107,2014-10-01T11:35:00,0,28124167,204140
OK,107,30,863,107,2014-10-01T11:40:00,3,28124571,204140
OK,101,32,863,101,2014-10-01T11:45:00,1,28125018,204140
OK,121,27,863,121,2014-10-01T11:50:00,2,28125447,204140
OK,97,33,863,97,2014-10-01T11:55:00,2,28125896,204140
OK,73,44,863,73,2014-10-01T12:00:00,1,28126249,204140
OK,73,44,863,73,2014-10-01T12:05:00,0,28126697,204140
OK,73,44,863,73,2014-10-01T12:10:00,0,28127146,204140
OK,114,28,863,114,2014-10-01T12:15:00,1,28127595,204140
OK,116,28,863,116,2014-10-01T12:20:00,2,28128024,204140
OK,119,27,863,119,2014-10-01T12:25:00,1,28128472,204140
OK,119,27,863,119,2014-10-01T12:30:00,0,28128907,204140
OK,118,27,863,118,2014-10-01T12:35:00,1,28129356,204140
OK,88,37,863,88,2014-10-01T12:40:00,3,28129791,204140
OK,108,30,863,108,2014-10-01T12:45:00,2,28130239,204140
OK,84,38,863,84,2014-10-01T12:50:00,1,28130668,204140
OK,84,38,863,84,2014-10-01T12:55:00,1,28131116,204140
OK,84,38,863,84,2014-10-01T13:00:00,0,28131554,204140
OK,84,38,863,84,2014-10-01T13:05:00,0,28132002,204140
OK,84,38,863,84,2014-10-01T13:10:00,0,28132441,204140
OK,84,38,863,84,2014-10-01T13:15:00,0,28132887,204140
OK,139,23,863,139,2014-10-01T13:20:00,4,28133325,204140
OK,141,23,863,141,2014-10-01T13:25:00,6,28133774,204140
OK,157,20,863,157,2014-10-01T13:30:00,1,28134213,204140
OK,157,20,863,157,2014-10-01T13:35:00,0,28134662,204140
OK,157,20,863,157,2014-10-01T13:40:00,0,28135082,204140
OK,157,20,863,157,2014-10-01T13:45:00,0,28135530,204140
OK,157,20,863,157,2014-10-01T13:50:00,0,28135967,204140
OK,127,25,863,127,2014-10-01T13:55:00,2,28136416,204140
OK,130,25,863,130,2014-10-01T14:00:00,1,28136856,204140
OK,130,25,863,130,2014-10-01T14:05:00,1,28137305,204140
OK,146,22,863,146,2014-10-01T14:10:00,2,28137739,204140
OK,146,22,863,146,2014-10-01T14:15:00,2,28138188,204140
OK,146,22,863,146,2014-10-01T14:20:00,0,28138617,204140
OK,146,22,863,146,2014-10-01T14:25:00,0,28139065,204140
OK,111,29,863,111,2014-10-01T14:30:00,1,28139477,204140
OK,103,31,863,103,2014-10-01T14:35:00,2,28139925,204140
OK,148,22,863,148,2014-10-01T14:40:00,2,28140368,204140
OK,200,16,863,200,2014-10-01T14:45:00,1,28140816,204140
OK,263,12,863,263,2014-10-01T14:50:00,3,28141243,204140
OK,211,15,863,211,2014-10-01T14:55:00,7,28141691,204140
OK,204,16,863,204,2014-10-01T15:00:00,4,28142120,204140
OK,154,21,863,154,2014-10-01T15:05:00,2,28142568,204140
OK,154,21,863,154,2014-10-01T15:10:00,2,28142996,204140
OK,147,22,863,147,2014-10-01T15:15:00,1,28143444,204140
OK,147,22,863,147,2014-10-01T15:20:00,1,28143892,204140
OK,89,36,863,89,2014-10-01T15:25:00,2,28144341,204140
OK,91,35,863,91,2014-10-01T15:30:00,2,28144764,204140
OK,107,30,863,107,2014-10-01T15:35:00,2,28145176,204140
OK,142,23,863,142,2014-10-01T15:40:00,1,28145625,204140
OK,142,23,863,142,2014-10-01T15:45:00,0,28146074,204140
OK,66,49,863,66,2014-10-01T15:50:00,1,28146523,204140
OK,64,51,863,64,2014-10-01T15:55:00,2,28146933,204140
OK,89,36,863,89,2014-10-01T16:00:00,1,28147375,204140
OK,89,36,863,89,2014-10-01T16:05:00,1,28147824,204140
OK,76,43,863,76,2014-10-01T16:10:00,2,28148226,204140
OK,92,35,863,92,2014-10-01T16:15:00,3,28148674,204140
OK,129,25,863,129,2014-10-01T16:20:00,1,28149114,204140
OK,71,46,863,71,2014-10-01T16:25:00,1,28149562,204140
OK,71,46,863,71,2014-10-01T16:30:00,0,28149989,204140
OK,71,46,863,71,2014-10-01T16:35:00,0,28150437,204140
OK,129,25,863,129,2014-10-01T16:40:00,1,28150856,204140
OK,129,25,863,129,2014-10-01T16:45:00,0,28151304,204140
OK,129,25,863,129,2014-10-01T16:55:00,0,28151753,204140
OK,123,26,863,123,2014-10-01T17:00:00,1,28152202,204140
OK,123,26,863,123,2014-10-01T17:05:00,0,28152648,204140
OK,82,39,863,82,2014-10-01T17:10:00,2,28153095,204140
OK,85,38,863,85,2014-10-01T17:15:00,2,28153544,204140
OK,47,69,863,47,2014-10-01T17:20:00,4,28153955,204140
OK,98,33,863,98,2014-10-01T17:25:00,1,28154403,204140
OK,54,60,863,54,2014-10-01T17:30:00,1,28154845,204140
OK,54,60,863,54,2014-10-01T17:35:00,0,28155293,204140
OK,54,60,863,54,2014-10-01T17:40:00,0,28155713,204140
OK,54,60,863,54,2014-10-01T17:45:00,0,28156160,204140
OK,54,60,863,54,2014-10-01T17:50:00,0,28156609,204140
OK,78,41,863,78,2014-10-01T17:55:00,2,28157047,204140
OK,76,43,863,76,2014-10-01T18:00:00,4,28157478,204140
OK,76,43,863,76,2014-10-01T18:05:00,2,28157925,204140
OK,76,43,863,76,2014-10-01T18:10:00,0,28158369,204140
OK,76,43,863,76,2014-10-01T18:15:00,0,28158815,204140
OK,76,43,863,76,2014-10-01T18:20:00,0,28159261,204140
OK,76,43,863,76,2014-10-01T18:25:00,0,28159597,204140
OK,74,44,863,74,2014-10-01T18:30:00,2,28160045,204140
OK,74,44,863,74,2014-10-01T18:35:00,0,28160494,204140
OK,76,43,863,76,2014-10-01T18:40:00,0,28160933,204140
OK,69,47,863,69,2014-10-01T18:45:00,1,28161381,204140
OK,69,47,863,69,2014-10-01T18:50:00,1,28161798,204140
OK,69,47,863,69,2014-10-01T19:00:00,0,28162247,204140
OK,87,37,863,87,2014-10-01T19:05:00,1,28163080,204140
OK,87,37,863,87,2014-10-01T19:10:00,3,28163528,204140
OK,90,36,863,90,2014-10-01T19:15:00,1,28163977,204140
OK,90,36,863,90,2014-10-01T19:20:00,0,28164409,204140
OK,90,36,863,90,2014-10-01T19:25:00,0,28164857,204140
OK,90,36,863,90,2014-10-01T19:30:00,0,28165283,204140
OK,90,36,863,90,2014-10-01T19:35:00,0,28165730,204140
OK,71,46,863,71,2014-10-01T19:40:00,1,28166171,204140
OK,80,40,863,80,2014-10-01T19:45:00,2,28166533,204140
OK,90,36,863,90,2014-10-01T19:50:00,1,28166982,204140
OK,90,36,863,90,2014-10-01T19:55:00,0,28167411,204140
OK,90,36,863,90,2014-10-01T20:00:00,0,28167845,204140
OK,79,41,863,79,2014-10-01T20:05:00,1,28168293,204140
OK,79,41,863,79,2014-10-01T20:10:00,0,28168738,204140
OK,79,41,863,79,2014-10-01T20:15:00,0,28169187,204140
OK,79,41,863,79,2014-10-01T20:20:00,0,28169635,204140
OK,79,41,863,79,2014-10-01T20:25:00,0,28170061,204140
OK,79,41,863,79,2014-10-01T20:30:00,0,28170506,204140
OK,79,41,863,79,2014-10-01T20:35:00,0,28170954,204140
OK,79,41,863,79,2014-10-01T20:40:00,0,28171391,204140
OK,79,41,863,79,2014-10-01T20:45:00,0,28171837,204140
OK,79,41,863,79,2014-10-01T20:50:00,0,28172285,204140
OK,79,41,863,79,2014-10-01T20:55:00,0,28172731,204140
OK,79,41,863,79,2014-10-01T21:00:00,0,28173177,204140
OK,63,51,863,63,2014-10-01T21:05:00,0,28173626,204140
OK,63,51,863,63,2014-10-01T21:10:00,0,28174067,204140
OK,63,51,863,63,2014-10-01T21:15:00,0,28174516,204140
OK,63,51,863,63,2014-10-01T21:20:00,0,28174942,204140
OK,63,51,863,63,2014-10-01T21:25:00,0,28175338,204140
OK,63,51,863,63,2014-10-01T21:30:00,0,28175787,204140
OK,63,51,863,63,2014-10-01T21:35:00,0,28176236,204140
OK,63,51,863,63,2014-10-01T21:40:00,0,28176685,204140
OK,63,51,863,63,2014-10-01T21:45:00,0,28177045,204140
OK,63,51,863,63,2014-10-01T21:50:00,0,28177481,204140
OK,63,51,863,63,2014-10-01T21:55:00,0,28177927,204140
OK,63,51,863,63,2014-10-01T22:00:00,0,28178376,204140
OK,63,51,863,63,2014-10-01T22:05:00,0,28178823,204140
OK,63,51,863,63,2014-10-01T22:10:00,0,28179258,204140
OK,63,51,863,63,2014-10-01T22:15:00,0,28179700,204140
OK,63,51,863,63,2014-10-01T22:20:00,0,28180147,204140
OK,63,51,863,63,2014-10-01T22:25:00,0,28180545,204140
OK,63,51,863,63,2014-10-01T22:30:00,0,28180994,204140
OK,63,51,863,63,2014-10-01T22:35:00,0,28181418,204140
OK,63,51,863,63,2014-10-01T22:40:00,0,28181866,204140
OK,63,51,863,63,2014-10-01T22:45:00,0,28182313,204140
OK,63,51,863,63,2014-10-01T22:50:00,0,28182762,204140
OK,63,51,863,63,2014-10-01T22:55:00,0,28183179,204140
OK,63,51,863,63,2014-10-01T23:00:00,0,28183612,204140
OK,63,51,863,63,2014-10-01T23:05:00,0,28184057,204140
OK,63,51,863,63,2014-10-01T23:10:00,0,28184506,204140
OK,63,51,863,63,2014-10-01T23:15:00,0,28184941,204140
OK,63,51,863,63,2014-10-01T23:20:00,0,28185389,204140
OK,63,51,863,63,2014-10-01T23:25:00,0,28185820,204140
OK,63,51,863,63,2014-10-01T23:30:00,0,28186212,204140
OK,63,51,863,63,2014-10-01T23:40:00,0,28187059,204140
OK,63,51,863,63,2014-10-01T23:45:00,0,28187501,204140
OK,63,51,863,63,2014-10-01T23:55:00,0,28188391,204140
OK,63,51,863,63,2014-10-02T00:00:00,0,28188827,204140
OK,63,51,863,63,2014-10-02T00:05:00,0,28189276,204140
OK,63,51,863,63,2014-10-02T00:10:00,0,28189699,204140
OK,63,51,863,63,2014-10-02T00:15:00,0,28190147,204140
OK,63,51,863,63,2014-10-02T00:20:00,0,28190501,204140
OK,63,51,863,63,2014-10-02T00:25:00,0,28190949,204140
OK,63,51,863,63,2014-10-02T00:30:00,0,28191398,204140
OK,63,51,863,63,2014-10-02T00:35:00,0,28191705,204140
OK,63,51,863,63,2014-10-02T00:40:00,0,28192153,204140
OK,63,51,863,63,2014-10-02T00:45:00,0,28192586,204140
OK,63,51,863,63,2014-10-02T00:50:00,0,28193030,204140
OK,63,51,863,63,2014-10-02T00:55:00,0,28193397,204140
OK,63,51,863,63,2014-10-02T01:05:00,0,28194295,204140
OK,63,51,863,63,2014-10-02T01:15:00,0,28194744,204140
OK,63,51,863,63,2014-10-02T01:20:00,0,28195429,204140
OK,63,51,863,63,2014-10-02T01:30:00,0,28195878,204140
OK,63,51,863,63,2014-10-02T01:35:00,0,28196611,204140
OK,63,51,863,63,2014-10-02T01:40:00,0,28197035,204140
OK,63,51,863,63,2014-10-02T01:45:00,0,28197483,204140
OK,63,51,863,63,2014-10-02T01:50:00,0,28197931,204140
OK,63,51,863,63,2014-10-02T01:55:00,0,28198379,204140
OK,63,51,863,63,2014-10-02T02:05:00,0,28198828,204140
OK,63,51,863,63,2014-10-02T02:10:00,0,28199642,204140
OK,63,51,863,63,2014-10-02T02:15:00,0,28200084,204140
OK,63,51,863,63,2014-10-02T02:20:00,0,28200527,204140
OK,63,51,863,63,2014-10-02T02:25:00,0,28200976,204140
OK,63,51,863,63,2014-10-02T02:30:00,0,28201407,204140
OK,63,51,863,63,2014-10-02T02:45:00,0,28202305,204140
OK,63,51,863,63,2014-10-02T02:50:00,0,28202747,204140
OK,63,51,863,63,2014-10-02T02:55:00,0,28203195,204140
OK,63,51,863,63,2014-10-02T03:00:00,0,28203630,204140
OK,63,51,863,63,2014-10-02T03:10:00,0,28204079,204140
OK,63,51,863,63,2014-10-02T03:25:00,0,28204528,204140
OK,63,51,863,63,2014-10-02T03:30:00,0,28204977,204140
OK,63,51,863,63,2014-10-02T03:35:00,0,28205406,204140
OK,63,51,863,63,2014-10-02T03:40:00,0,28205852,204140
OK,63,51,863,63,2014-10-02T03:45:00,0,28206235,204140
OK,63,51,863,63,2014-10-02T03:55:00,0,28207133,204140
OK,63,51,863,63,2014-10-02T04:00:00,0,28207554,204140
OK,63,51,863,63,2014-10-02T04:05:00,0,28208001,204140
OK,63,51,863,63,2014-10-02T04:10:00,0,28208429,204140
OK,63,51,863,63,2014-10-02T04:15:00,0,28208877,204140
OK,63,51,863,63,2014-10-02T04:20:00,0,28209315,204140
OK,63,51,863,63,2014-10-02T04:25:00,0,28209764,204140
OK,63,51,863,63,2014-10-02T04:30:00,0,28210187,204140
OK,63,51,863,63,2014-10-02T04:35:00,0,28210636,204140
OK,63,51,863,63,2014-10-02T04:40:00,0,28211062,204140
OK,63,51,863,63,2014-10-02T04:45:00,0,28211505,204140
OK,63,51,863,63,2014-10-02T04:50:00,0,28211883,204140
OK,68,48,863,68,2014-10-02T04:55:00,0,28212332,204140
OK,68,48,863,68,2014-10-02T05:00:00,0,28212761,204140
OK,127,25,863,127,2014-10-02T05:05:00,2,28213210,204140
OK,127,25,863,127,2014-10-02T05:10:00,0,28213648,204140
OK,86,38,863,86,2014-10-02T05:15:00,2,28214097,204140
OK,86,38,863,86,2014-10-02T05:20:00,2,28214511,204140
OK,147,22,863,147,2014-10-02T05:25:00,1,28214959,204140
OK,147,22,863,147,2014-10-02T05:30:00,0,28215376,204140
OK,126,25,863,126,2014-10-02T05:40:00,3,28215824,204140
OK,125,26,863,125,2014-10-02T05:45:00,2,28216603,204140
OK,125,26,863,125,2014-10-02T05:50:00,0,28217050,204140
OK,83,39,863,83,2014-10-02T05:55:00,4,28217499,204140
OK,75,43,863,75,2014-10-02T06:00:00,3,28217938,204140
OK,108,30,863,108,2014-10-02T06:05:00,2,28218387,204140
OK,100,32,863,100,2014-10-02T06:10:00,0,28218807,204140
OK,125,26,863,125,2014-10-02T06:15:00,2,28219256,204140
OK,165,19,863,165,2014-10-02T06:20:00,3,28219630,204140
OK,103,31,863,103,2014-10-02T06:25:00,2,28220078,204140
OK,150,21,863,150,2014-10-02T06:30:00,2,28220513,204140
OK,79,41,863,79,2014-10-02T06:40:00,5,28220961,204140
OK,109,30,863,109,2014-10-02T06:45:00,0,28221628,204140
OK,76,43,863,76,2014-10-02T07:00:00,3,28222222,204140
OK,152,21,863,152,2014-10-02T07:05:00,2,28222671,204140
OK,152,21,863,152,2014-10-02T07:10:00,2,28223103,204140
OK,57,57,863,57,2014-10-02T07:15:00,0,28223538,204140
OK,57,57,863,57,2014-10-02T07:20:00,0,28223985,204140
OK,88,37,863,88,2014-10-02T07:25:00,0,28224340,204140
OK,88,37,863,88,2014-10-02T07:30:00,0,28224789,204140
OK,125,26,863,125,2014-10-02T07:35:00,1,28225238,204140
OK,125,26,863,125,2014-10-02T07:40:00,0,28225562,204140
OK,101,32,863,101,2014-10-02T07:50:00,3,28226450,204140
OK,103,31,863,103,2014-10-02T07:55:00,4,28226899,204140
OK,125,26,863,125,2014-10-02T08:00:00,2,28227315,204140
OK,89,36,863,89,2014-10-02T08:05:00,1,28227763,204140
OK,89,36,863,89,2014-10-02T08:10:00,1,28228123,204140
OK,127,25,863,127,2014-10-02T08:15:00,1,28228571,204140
OK,127,25,863,127,2014-10-02T08:20:00,1,28228982,204140
OK,127,25,863,127,2014-10-02T08:25:00,0,28229430,204140
OK,127,25,863,127,2014-10-02T08:30:00,0,28229781,204140
OK,97,33,863,97,2014-10-02T08:40:00,1,28230229,204140
OK,97,33,863,97,2014-10-02T08:45:00,0,28231044,204140
OK,92,35,863,92,2014-10-02T08:50:00,6,28231467,204140
OK,109,30,863,109,2014-10-02T08:55:00,1,28231916,204140
OK,109,30,863,109,2014-10-02T09:00:00,0,28232259,204140
OK,109,30,863,109,2014-10-02T09:10:00,0,28232707,204140
OK,108,30,863,108,2014-10-02T09:15:00,3,28233156,204140
OK,108,30,863,108,2014-10-02T09:20:00,3,28233580,204140
OK,104,31,863,104,2014-10-02T09:25:00,0,28234029,204140
OK,104,31,863,104,2014-10-02T09:30:00,0,28234363,204140
OK,109,30,863,109,2014-10-02T09:35:00,4,28234811,204140
OK,116,28,863,116,2014-10-02T09:40:00,0,28235238,204140
OK,72,45,863,72,2014-10-02T09:45:00,4,28235687,204140
OK,79,41,863,79,2014-10-02T09:50:00,1,28236131,204140
OK,109,30,863,109,2014-10-02T09:55:00,2,28236577,204140
OK,109,30,863,109,2014-10-02T10:00:00,2,28236980,204140
OK,139,23,863,139,2014-10-02T10:05:00,0,28237428,204140
OK,139,23,863,139,2014-10-02T10:10:00,0,28237876,204140
OK,103,31,863,103,2014-10-02T10:15:00,1,28238324,204140
OK,103,31,863,103,2014-10-02T10:20:00,1,28238764,204140
OK,103,31,863,103,2014-10-02T10:25:00,0,28239213,204140
OK,103,31,863,103,2014-10-02T10:30:00,0,28239644,204140
OK,74,44,863,74,2014-10-02T10:35:00,6,28240092,204140
OK,105,31,863,105,2014-10-02T10:40:00,0,28240537,204140
OK,105,31,863,105,2014-10-02T10:45:00,0,28240985,204140
OK,105,31,863,105,2014-10-02T10:50:00,0,28241418,204140
OK,81,40,863,81,2014-10-02T10:55:00,6,28241865,204140
OK,75,43,863,75,2014-10-02T11:00:00,2,28242262,204140
OK,75,43,863,75,2014-10-02T11:05:00,0,28242710,204140
OK,118,27,863,118,2014-10-02T11:15:00,0,28243159,204140
OK,64,51,863,64,2014-10-02T11:20:00,1,28243922,204140
OK,64,51,863,64,2014-10-02T11:25:00,1,28244352,204140
OK,64,51,863,64,2014-10-02T11:30:00,0,28244800,204140
OK,91,35,863,91,2014-10-02T11:35:00,1,28245249,204140
OK,91,35,863,91,2014-10-02T11:40:00,1,28245656,204140
OK,91,35,863,91,2014-10-02T11:45:00,0,28246104,204140
OK,76,43,863,76,2014-10-02T11:50:00,2,28246541,204140
OK,76,43,863,76,2014-10-02T11:55:00,2,28246990,204140
OK,63,51,863,63,2014-10-02T12:00:00,0,28247436,204140
OK,63,51,863,63,2014-10-02T12:05:00,0,28247867,204140
OK,63,51,863,63,2014-10-02T12:10:00,0,28248315,204140
OK,127,25,863,127,2014-10-02T12:15:00,3,28248763,204140
OK,127,25,863,127,2014-10-02T12:20:00,1,28249190,204140
OK,145,22,863,145,2014-10-02T12:25:00,2,28249634,204140
OK,145,22,863,145,2014-10-02T12:30:00,0,28250053,204140
OK,66,49,863,66,2014-10-02T12:35:00,3,28250451,204140
OK,123,26,863,123,2014-10-02T12:45:00,4,28251231,204140
OK,97,33,863,97,2014-10-02T13:20:00,1,28251776,204140
OK,97,33,863,97,2014-10-02T13:30:00,0,28252360,204140
OK,97,33,863,97,2014-10-02T13:35:00,0,28252802,204140
OK,97,33,863,97,2014-10-02T13:40:00,0,28253219,204140
OK,169,19,863,169,2014-10-02T13:45:00,0,28253668,204140
OK,169,19,863,169,2014-10-02T13:50:00,0,28254074,204140
OK,122,26,863,122,2014-10-02T13:55:00,2,28254394,204140
OK,167,19,863,167,2014-10-02T14:10:00,1,28254971,204140
OK,110,29,863,110,2014-10-02T14:15:00,2,28255420,204140
OK,79,41,863,79,2014-10-02T14:20:00,0,28255848,204140
OK,79,41,863,79,2014-10-02T14:25:00,0,28256297,204140
OK,179,18,863,179,2014-10-02T14:30:00,3,28256725,204140
OK,204,16,863,204,2014-10-02T14:35:00,2,28257174,204140
OK,204,16,863,204,2014-10-02T14:40:00,2,28257615,204140
OK,204,16,863,204,2014-10-02T14:45:00,0,28258063,204140
OK,72,45,863,72,2014-10-02T14:50:00,1,28258496,204140
OK,88,37,863,88,2014-10-02T14:55:00,2,28258942,204140
OK,100,32,863,100,2014-10-02T15:00:00,2,28259391,204140
OK,95,34,863,95,2014-10-02T15:05:00,0,28259838,204140
OK,91,35,863,91,2014-10-02T15:10:00,2,28260271,204140
OK,79,41,863,79,2014-10-02T15:15:00,2,28260720,204140
OK,76,43,863,76,2014-10-02T15:20:00,0,28261160,204140
OK,76,43,863,76,2014-10-02T15:25:00,0,28261542,204140
OK,76,43,863,76,2014-10-02T15:30:00,0,28261972,204140
OK,97,33,863,97,2014-10-02T15:35:00,5,28262419,204140
OK,97,33,863,97,2014-10-02T15:40:00,2,28262865,204140
OK,97,33,863,97,2014-10-02T15:45:00,0,28263303,204140
OK,97,33,863,97,2014-10-02T15:50:00,0,28263744,204140
OK,97,33,863,97,2014-10-02T15:55:00,0,28264146,204140
OK,97,33,863,97,2014-10-02T16:00:00,0,28264595,204140
OK,113,28,863,113,2014-10-02T16:05:00,4,28265033,204140
OK,73,44,863,73,2014-10-02T16:10:00,1,28265473,204140
OK,73,44,863,73,2014-10-02T16:15:00,1,28265869,204140
OK,109,30,863,109,2014-10-02T16:20:00,3,28266318,204140
OK,96,34,863,96,2014-10-02T16:25:00,5,28266767,204140